Location: Euclid Heights
(41.5045°N, 81.5843°W)
Time: 10:10:21
(UTC+00:00)

Daily predictions for brighter satellites

Satellite Brightness Start Highest point End
(mag) Time Altitude Azimuth Time Altitude Azimuth Time Altitude Azimuth
STARLINK 1064 4.2 12:01:30 10° WNW 12:04:43 34° SW 12:07:56 10° SSE
STARLINK 1041 4.3 12:04:38 10° WNW 12:07:49 31° SW 12:10:59 10° SSE
Cosmos 1346 Rocket 4.1 12:08:08 10° WSW 12:10:51 18° WNW 12:13:35 10° NNW
STARLINK 1038 4.4 12:07:48 10° WNW 12:10:56 29° SW 12:14:02 10° SSE
Cosmos 1908 Rocket 3.9 12:07:26 10° S 12:11:53 74° E 12:16:21 10° NNE
Cosmos 304 Rocket 3.9 12:08:29 10° SSW 12:13:15 83° ESE 12:18:04 10° NNE
H-2A R/B 3.0 12:10:10 10° N 12:13:45 45° WNW 12:17:22 10° SSW
STARLINK 1046 4.5 12:10:57 10° WNW 12:14:01 28° SW 12:17:04 10° SSE
Cosmos 1844 3.8 12:12:04 10° SSW 12:17:52 86° WNW 12:23:41 10° NNE
COSMO-SKYMED 1 4.3 22:23:21 10° ENE 22:25:39 14° E 22:27:57 10° ESE
Meteor 2-6 Rocket 4.3 22:20:30 10° S 22:25:53 83° W 22:31:20 10° N
YAOGAN 6 4.5 22:25:53 10° E 22:26:53 11° ENE 22:27:51 10° NE
Helios 1A Rocket 3.5 22:24:31 10° S 22:28:35 63° WSW 22:32:40 10° NNW
Cosmos 304 Rocket 4.3 22:25:02 10° NNW 22:29:49 65° WSW 22:34:34 10° S
CZ-4B R/B 3.9 22:27:55 10° NNW 22:30:41 22° WNW 22:33:24 10° WSW
YAOGAN 1 4.5 22:30:20 10° ENE 22:30:55 10° ENE 22:31:30 10° NE
BREEZE-M DEB (TANK) 1.7 22:28:15 10° NW 22:31:04 62° NNE 22:33:16 10° ESE
Cosmos 2251 Rocket 3.5 22:26:07 10° SSW 22:31:25 75° ESE 22:36:42 10° NNE
SL-16 R/B 3.5 22:27:32 10° SSE 22:31:45 22° E 22:35:59 10° NE
Okean 1-7 4.5 22:30:14 10° SE 22:33:09 18° E 22:36:04 10° NE
Cosmos 2279 Rocket 4.3 22:27:58 10° N 22:34:14 76° W 22:40:28 10° S
Cosmos 1500 3.1 22:35:07 10° N 22:38:52 66° E 22:42:34 10° SSE
BREEZE-M R/B 4.4 22:34:35 10° WNW 22:40:12 30° NNW 22:43:18 11° NE
Cosmos 292 Rocket 4.5 22:35:53 10° N 22:40:14 32° ENE 22:44:33 10° SE
Cosmos 2333 Rocket 3.3 22:35:15 10° SW 22:40:43 45° WNW 22:46:15 10° NNE
Cosmos 2237 Rocket 2.2 22:36:06 10° SSW 22:41:45 73° ESE 22:47:27 10° NNE
Envisat 3.6 22:38:32 10° SE 22:43:06 35° ENE 22:47:40 10° N
Cosmos 1733 Rocket 3.1 22:39:25 10° N 22:43:49 88° E 22:48:13 10° S
USA 215 3.9 22:40:50 10° NE 22:47:04 49° NNW 22:53:17 10° WSW
COBE Rocket 3.8 22:42:43 10° NNE 22:47:22 68° E 22:52:03 10° S
CORIOLIS 4.2 22:43:15 10° SSE 22:48:36 63° ENE 22:53:59 10° N
Nadezhda 4 Rocket 4.0 22:45:27 10° S 22:51:46 80° E 22:58:06 10° N
Cosmos 407 Rocket 4.5 22:47:37 10° SSE 22:51:54 27° E 22:55:51 12° NE
IRS-1C Rocket 4.1 22:48:26 10° SSE 22:53:43 89° WSW 22:59:01 10° NNW
Cosmos 2219 Rocket 3.6 22:49:10 10° WSW 22:54:17 35° WNW 22:59:27 10° N
H-2A R/B 2.5 22:50:57 10° SSE 22:54:38 78° ENE 22:58:20 10° N
RESURS DK-1 4.2 22:51:45 10° WSW 22:55:17 27° WNW 22:58:52 10° N
Cosmos 1992 Rocket 3.9 22:52:26 10° NNW 22:57:41 82° ENE 23:02:54 10° SSE
Cosmos 1441 Rocket 4.0 22:55:14 10° NNE 22:58:32 27° ENE 23:01:47 10° SE
FALCON 9 DEB 3.1 23:00:38 10° SW 23:04:08 82° NW 23:06:25 20° NE
Cosmos 921 Rocket 3.8 23:01:08 10° N 23:04:50 28° ENE 23:08:35 10° SE
Meteor 1-27 Rocket 4.1 23:01:55 10° SSW 23:07:38 71° WNW 23:13:29 10° N
Meteor 1-11 Rocket 4.3 23:01:42 10° NNW 23:07:38 68° W 23:13:30 10° S
Cosmos 1943 Rocket 3.7 23:04:30 10° N 23:07:47 15° NE 23:07:52 15° NE
Cosmos 1980 4.2 23:07:23 10° SW 23:12:57 59° WNW 23:18:34 10° NNE
Cosmos 2026 Rocket 4.0 23:08:00 10° SSE 23:13:50 52° E 23:19:41 10° NNE
SKYMED 2 3.8 23:09:59 10° NNE 23:14:07 45° E 23:18:17 10° S
Cosmos 1782 Rocket 3.9 23:10:54 10° N 23:15:00 39° ENE 23:19:04 10° SSE
CSL-04 Rocket 4.2 23:10:57 10° SE 23:15:36 33° ENE 23:20:17 10° N
Cosmos 1536 3.1 23:12:06 10° NNW 23:16:07 70° W 23:20:04 10° S
Genesis I 3.7 23:13:16 10° NNW 23:16:53 36° NE 23:18:27 25° E
Sich 1 Rocket 4.2 23:13:36 10° NNE 23:17:33 32° ENE 23:21:29 10° SE
Shenzhou-11 Module 1.6 23:16:58 10° WNW 23:19:42 90° SSW 23:20:27 44° ESE
USA 267 3.4 23:13:30 10° SE 23:20:03 79° SW 23:26:37 10° NW
Cosmos 2297 3.9 23:17:01 10° NNW 23:22:34 49° ENE 23:28:01 10° SE
Cosmos 1666 2.5 23:19:28 10° N 23:23:12 89° WNW 23:26:56 10° S
OAO 2 Rocket 4.3 23:18:47 10° WSW 23:23:26 40° S 23:26:59 16° ESE
Cosmos 1703 Rocket 3.5 23:19:20 10° S 23:23:47 78° E 23:28:17 10° N
Lacrosse 5 rocket 3.4 23:23:10 10° WNW 23:26:21 20° NNW 23:28:46 13° NNE
STARLINK-52 3.4 23:25:20 10° WSW 23:28:48 63° NW 23:30:04 35° NNE
CSL-04 Debris 4.4 23:27:00 10° SE 23:32:12 47° ENE 23:37:24 10° N
CZ-4 R/B 1.3 23:30:10 10° SSE 23:33:59 55° ENE 23:37:46 10° N
Meteor 1-18 Rocket 4.3 23:29:02 10° S 23:34:36 55° E 23:39:37 13° NNE
SL-4 R/B 3.7 23:32:04 10° NW 23:34:54 19° N 23:35:35 18° NNE
Okean 1 3.3 23:31:24 10° S 23:35:18 57° E 23:36:51 33° NNE
STARLINK-29 3.8 23:33:35 10° WSW 23:37:01 48° NNW 23:37:59 36° NNE
ISS -1.8 23:39:04 10° WNW 23:42:01 29° SW 23:44:59 10° SSE
Cosmos 1627 Rocket 4.5 23:37:22 10° S 23:43:29 85° W 23:49:39 10° N
NOAA 15 4.5 23:38:19 10° SSE 23:43:30 63° ENE 23:48:41 10° N
Okean-O 3.5 23:40:41 10° S 23:44:58 50° W 23:49:18 10° NNW
Cosmos 1190 Rocket 3.9 23:40:09 10° S 23:45:19 73° ESE 23:48:06 28° NNE
Cosmos 676 Rocket 4.2 23:42:27 10° S 23:47:20 44° ESE 23:47:58 42° E
Cosmos 1655 Rocket 4.2 23:42:22 10° SSE 23:48:23 48° E 23:52:09 22° NNE
Cosmos 1743 2.5 23:45:49 10° N 23:49:42 76° E 23:53:34 10° SSE
Meteor 2-9 Rocket 4.4 23:46:38 10° N 23:52:19 48° ENE 23:57:53 10° SSE
